Home   Weather   Marshall Islands   Kwajalein   Past weeks
Flag for Marshall Islands

Past Weather in Kwajalein, Marshall Islands — Yesterday and Last 2 Weeks

Currently: 81 °F. Passing clouds. (Weather station: Kwajalein / Bucholz, Marshall Islands). See more current weather

Past Weather in Kwajalein — Graph

°F

Kwajalein Temperature Yesterday

Maximum temperature yesterday: 88 °F (at 1:20 pm)
Minimum temperature yesterday: 81 °F (at 6:20 am)
Average temperature yesterday: 84 °F

High & Low Weather Summary for the Past Weeks

 TemperatureHumidityPressure
High88 °F (Jun 1, 2:40 pm)94% (Jun 5, 1:00 am)29.95 "Hg (Jun 5, 1:00 am)
Low76 °F (Jun 5, 1:00 am)62% (Jun 14, 2:00 pm)29.78 "Hg (Jun 6, 4:40 pm)
Average83 °F77%29.86 "Hg
* Reported Jun 1 1:00 am — Jun 16 1:20 am, Kwajalein. Weather by CustomWeather, © 2021

Note: Actual official high and low records may vary slightly from our data, if they occured in-between our weather recording intervals... More about our weather records

Kwajalein Weather History for the Previous 24 Hours

Scroll right to see more
 ConditionsComfort  
Time TempWeatherWind HumidityBarometerVisibility
1:20 am
Wed, Jun 16
80 °FClear.18 mph84%29.89 "Hg10 mi
1:00 am80 °FClear.21 mph85%29.89 "Hg10 mi
12:20 am81 °FClear.14 mph84%29.90 "Hg10 mi
12:00 am82 °FClear.18 mph83%29.91 "Hg10 mi
11:40 pm
Tue, Jun 15
82 °FPassing clouds.17 mph82%29.92 "Hg10 mi
11:20 pm83 °FPassing clouds.26 mph80%29.92 "Hg10 mi
11:00 pm83 °FPassing clouds.18 mph81%29.92 "Hg10 mi
10:20 pm83 °FPassing clouds.16 mph81%29.92 "Hg10 mi
10:00 pm83 °FPassing clouds.16 mph81%29.91 "Hg10 mi
9:40 pm83 °FPassing clouds.15 mph81%29.91 "Hg10 mi
9:20 pm83 °FPassing clouds.16 mph81%29.91 "Hg10 mi
9:00 pm83 °FClear.16 mph81%29.90 "Hg10 mi
8:40 pm83 °FClear.15 mph80%29.89 "Hg10 mi
8:20 pm84 °FPassing clouds.14 mph77%29.88 "Hg10 mi
8:00 pm84 °FPassing clouds.15 mph77%29.88 "Hg10 mi
7:20 pm84 °FPassing clouds.15 mph76%29.87 "Hg10 mi
7:00 pm84 °FScattered clouds.15 mph76%29.86 "Hg10 mi
6:20 pm85 °FScattered clouds.15 mph75%29.85 "Hg10 mi
6:00 pm85 °FScattered clouds.16 mph74%29.84 "Hg10 mi
5:40 pm86 °FPartly sunny.14 mph73%29.84 "Hg10 mi
5:20 pm86 °FScattered clouds.13 mph73%29.83 "Hg10 mi
5:00 pm86 °FScattered clouds.9 mph72%29.83 "Hg10 mi
4:20 pm87 °FScattered clouds.10 mph72%29.83 "Hg10 mi
4:00 pm87 °FScattered clouds.9 mph72%29.83 "Hg10 mi
3:20 pm87 °FSunny.10 mph70%29.83 "Hg10 mi
3:00 pm87 °FSunny.12 mph70%29.84 "Hg10 mi
2:40 pm87 °FSunny.10 mph70%29.84 "Hg10 mi
2:20 pm87 °FSunny.12 mph70%29.84 "Hg10 mi
2:00 pm88 °FSunny.12 mph69%29.85 "Hg10 mi
1:20 pm88 °FSunny.13 mph68%29.86 "Hg10 mi
1:00 pm87 °FSunny.14 mph68%29.86 "Hg10 mi
12:20 pm87 °FSunny.12 mph69%29.88 "Hg10 mi
12:00 pm87 °FSunny.10 mph70%29.88 "Hg10 mi
11:40 am87 °FSunny.10 mph70%29.88 "Hg10 mi
11:20 am87 °FSunny.12 mph71%29.88 "Hg10 mi
11:00 am86 °FSunny.13 mph71%29.89 "Hg10 mi
10:40 am86 °FSunny.14 mph73%29.89 "Hg10 mi
10:20 am85 °FSunny.14 mph75%29.90 "Hg10 mi
10:00 am85 °FSunny.14 mph76%29.90 "Hg10 mi
9:40 am84 °FSunny.14 mph77%29.90 "Hg10 mi
9:20 am84 °FScattered clouds.13 mph79%29.90 "Hg10 mi
9:00 am84 °FCloudy.17 mph79%29.89 "Hg10 mi
8:40 am84 °FCloudy.13 mph79%29.89 "Hg10 mi
8:20 am83 °FBroken clouds.13 mph80%29.88 "Hg10 mi
8:00 am83 °FScattered clouds.12 mph82%29.88 "Hg10 mi
7:20 am82 °FScattered clouds.10 mph84%29.87 "Hg10 mi
7:00 am81 °FScattered clouds.10 mph85%29.86 "Hg10 mi
6:20 am81 °FClear.7 mph85%29.86 "Hg10 mi
6:00 am81 °FClear.8 mph84%29.85 "Hg10 mi
5:20 am81 °FPassing clouds.12 mph84%29.84 "Hg10 mi
5:00 am81 °FPassing clouds.18 mph83%29.84 "Hg10 mi
4:40 am81 °FPassing clouds.9 mph83%29.84 "Hg10 mi
4:20 am81 °FPassing clouds.9 mph83%29.83 "Hg10 mi
4:00 am81 °FPassing clouds.6 mph83%29.83 "Hg10 mi
3:20 am81 °FClear.10 mph83%29.84 "Hg10 mi
3:00 am81 °FClear.10 mph83%29.84 "Hg10 mi
2:40 am81 °FClear.8 mph82%29.84 "Hg10 mi
2:20 am81 °FPassing clouds.9 mph82%29.85 "Hg10 mi
2:00 am81 °FPassing clouds.7 mph82%29.86 "Hg10 mi
Weather by CustomWeather, © 2021

See weather overview